Hourly Data Report for October 29, 2016

All times are specified in Local Standard Time (LST). Add 1 hour to adjust for Daylight Saving Time where and when it is observed.

CHARLOTTETOWN A
PRINCE EDWARD ISLAND

46°17'21.000" N
63°07'09.000" W
48.50 m
8300301
71706
YYG

Download Data

Hourly Data (October 2016)
Hourly Data Report for October 29, 2016
Temp Definition
°C
Dew Point Temp Definition
°C
Rel Hum Definition
%
Wind Dir Definition
10's deg

Wind Spd Definition
km/h
Visibility Definition
km
Stn Press Definition
kPa
Hmdx Definition


Wind Chill Definition


Weather Definition


TIME
00:00 Legend Double Dagger 6.2 5.3 94 9 19 16.1 101.36     Rain
01:00 Legend Double Dagger 6.4 5.5 94 8 19 12.9 101.25     Rain
02:00 Legend Double Dagger 6.3 5.4 94 6 23 9.7 101.11     Rain,Fog
03:00 Legend Double Dagger 6.4 5.5 94 4 27 12.9 100.97     Rain
04:00 Legend Double Dagger 7.1 6.2 94 5 28 12.9 100.89     Rain
05:00 Legend Double Dagger 7.8 6.6 92 4 30 6.4 100.85     Rain,Fog
06:00 Legend Double Dagger 8.2 7.1 93 5 33 9.7 100.81     Rain,Drizzle,Fog
07:00 Legend Double Dagger 8.2 7.1 93 5 35 4.8 100.72     Rain,Drizzle,Fog
08:00 Legend Double Dagger 8.7 7.8 94 5 32 19.3 100.66     Drizzle
09:00 Legend Double Dagger 9.3 8.4 94 5 23 9.7 100.63     Drizzle,Fog
10:00 Legend Double Dagger 9.9 8.8 93 6 25 12.9 100.54     Drizzle
11:00 Legend Double Dagger 10.7 9.1 90 7 19 19.3 100.50     Cloudy
12:00 Legend Double Dagger 11.4 9.2 86 10 20 19.3 100.41     LegendNANA
13:00 Legend Double Dagger 11.3 9.2 87 9 14 16.1 100.37     LegendNANA
14:00 Legend Double Dagger 10.8 9.7 93 9 11 3.2 100.37     Rain,Fog
15:00 Legend Double Dagger 10.5 9.7 95 8 17 3.2 100.30     Rain,Fog
16:00 Legend Double Dagger 10.1 9.5 96 10 13 3.2 100.29     Rain,Fog
17:00 Legend Double Dagger 9.8 9.2 96 7 7 2.4 100.29     Rain,Fog
18:00 Legend Double Dagger 9.5 8.9 96 10 10 4.0 100.24     Rain,Fog
19:00 Legend Double Dagger 9.3 8.9 97 7 9 4.8 100.19     Drizzle,Fog
20:00 Legend Double Dagger 9.2 8.8 97 3 4 4.8 100.17     Drizzle,Fog
21:00 Legend Double Dagger 9.0 8.6 97 6 9 9.7 100.11     Drizzle,Fog
22:00 Legend Double Dagger 8.9 8.5 97 10 9 9.7 100.06     Drizzle,Fog
23:00 Legend Double Dagger 8.8 8.4 97 11 10 9.7 99.98     Drizzle,Fog

Notes on Data Quality.

Legend

  • E = Estimated
  • M = Missing
  • NA = Not Available
  • ‡ = Partner data that is not subject to review by the National Climate Archives
Date modified: